Content
SEND FEEDBACK

Daily
Averages
Monthly
Summary
United States of America

BOILING SPRING LAKES, NORTH CAROLINA


Home > North America > United States > North Carolina
Elevation: 20 feet     Latitude: 34 00N     Longitude: 078 01W

WEATHER
 
SELECT A DAY
Number of Records: 147,806;   Date Range: 8/21/01 - 12/17/14
 
SHARE

PRINT THIS DATA

[ ← Previous Day ]
WEATHER ALMANAC - MAY 19, 2013
[ Next Day → ]
[ °C ]   °F
Weather ElementAverageHighLow
Temperature74.1 °F80.2 °F (11:55 am)69.8 °F (4:35 am)
Dewpoint67.2 °F68.9 °F (11:15 pm)65.8 °F (5:35 am)
Humidity79.4 %89 % (10:55 pm)65 % (11:35 am)
Barometer30.14 in30.18 in (11:15 am)30.11 in (3:15 pm)
Wind Speed5.1 mph11.5 mph (11:35 am)
Wind Gust17.3 mph (1:35 pm)
Weather ElementAverage
Visibility10 mi
Wind DirectionESE (129.3 °)

Weather ElementTotal
Precipitation---
Cooling Degree Days10 (Base 65)
Growing Degree Days25 (Base 50)
Averaged from 69 records on May 19, 2013
WEATHER CONDITIONS BREAKOUT
WIND DIRECTION BREAKOUT
WEATHER BY HOUR - MAY 19, 2013
[ °C ]   °F
Local TimeTemperatureDewpointHumidityBarometerVisibilityWind DirectionWind SpeedGust SpeedPrecipitationEventsConditions
12:35 AM70.9 °F66.2 °F85 %30.15 in10.0 miSSE (150°)3.5 mphClear
12:55 AM70.7 °F66.2 °F86 %30.14 in10.0 miSSE (160°)3.5 mphClear
1:15 AM70.7 °F66.0 °F85 %30.14 in10.0 miCalmClear
1:35 AM70.5 °F66.2 °F86 %30.13 in10.0 miSSE (160°)3.5 mphClear
1:55 AM70.5 °F66.2 °F86 %30.13 in10.0 miCalmClear
2:15 AM70.3 °F66.4 °F87 %30.13 in10.0 miCalmScattered Clouds
2:35 AM70.7 °F66.6 °F87 %30.13 in10.0 miCalmMostly Cloudy
2:55 AM70.7 °F66.2 °F86 %30.13 in10.0 miCalmOvercast
3:15 AM70.3 °F66.2 °F87 %30.13 in10.0 miCalmScattered Clouds
3:35 AM70.3 °F66.2 °F87 %30.12 in10.0 miCalmClear
3:55 AM70.2 °F66.2 °F87 %30.12 in10.0 miSE (130°)3.5 mphClear
4:15 AM70.2 °F66.2 °F87 %30.12 in10.0 miESE (120°)3.5 mphClear
4:35 AM69.8 °F66.2 °F88 %30.12 in10.0 miCalmClear
4:55 AM70.0 °F66.2 °F88 %30.12 in10.0 miCalmClear
5:15 AM70.0 °F66.0 °F87 %30.12 in10.0 miESE (120°)3.5 mphScattered Clouds
5:35 AM70.0 °F65.8 °F87 %30.13 in10.0 miCalmScattered Clouds
5:55 AM69.8 °F65.8 °F87 %30.13 in10.0 miSE (130°)3.5 mphClear
6:15 AM70.0 °F66.0 °F87 %30.14 in10.0 miCalmClear
6:35 AM70.0 °F66.2 °F88 %30.14 in10.0 miESE (120°)3.5 mphMostly Cloudy
6:55 AM70.0 °F66.2 °F88 %30.15 in10.0 miCalmScattered Clouds
7:15 AM70.5 °F66.2 °F86 %30.15 in10.0 miCalmClear
7:35 AM71.2 °F66.2 °F84 %30.16 in10.0 miSSE (150°)3.5 mphClear
7:55 AM72.5 °F67.1 °F83 %30.16 in10.0 miSE (140°)4.6 mphClear
8:15 AM74.1 °F67.3 °F79 %30.16 in10.0 miSSE (160°)3.5 mphScattered Clouds
8:35 AM73.0 °F66.7 °F81 %30.17 in10.0 miSSE (150°)4.6 mphMostly Cloudy
8:55 AM73.6 °F67.1 °F80 %30.17 in10.0 miSSE (160°)4.6 mphMostly Cloudy
9:15 AM74.3 °F67.1 °F78 %30.17 in10.0 miSSE (160°)5.8 mphScattered Clouds
9:35 AM76.5 °F67.1 °F73 %30.17 in10.0 miSouth (170°)5.8 mphScattered Clouds
9:55 AM78.3 °F66.9 °F68 %30.17 in10.0 miSSE (160°)8.1 mphClear
10:15 AM77.5 °F66.4 °F68 %30.17 in10.0 miSSE (160°)10.4 mphClear
10:35 AM78.4 °F66.4 °F66 %30.17 in10.0 miSSE (160°)10.4 mph16.1 mphClear
10:55 AM79.5 °F67.3 °F66 %30.17 in10.0 miSouth (170°)10.4 mphClear
11:15 AM79.3 °F66.9 °F66 %30.18 in10.0 miSouth (170°)9.2 mphClear
11:35 AM79.7 °F67.1 °F65 %30.17 in10.0 miSSE (160°)11.5 mphClear
11:55 AM80.2 °F67.6 °F65 %30.16 in10.0 miSouth (190°)10.4 mph16.1 mphScattered Clouds
12:15 PM78.6 °F68.5 °F71 %30.16 in10.0 miSouth (190°)6.9 mphScattered Clouds
12:35 PM77.4 °F68.2 °F73 %30.16 in10.0 miSSW (210°)5.8 mphScattered Clouds
12:55 PM79.3 °F67.3 °F66 %30.16 in10.0 miSouth (190°)8.1 mphClear
1:15 PM77.9 °F66.7 °F68 %30.15 in10.0 miSouth (190°)6.9 mphClear
1:35 PM79.2 °F67.3 °F67 %30.14 in10.0 miSouth (170°)11.5 mph17.3 mphClear
1:55 PM79.9 °F67.3 °F65 %30.14 in10.0 miSouth (180°)8.1 mphClear
2:15 PM78.8 °F67.8 °F69 %30.13 in10.0 miSouth (170°)10.4 mphClear
2:35 PM77.7 °F68.0 °F72 %30.12 in7.0 miSSE (160°)9.2 mphClear
3:15 PM79.3 °F67.3 °F66 %30.11 in10.0 miSouth (170°)9.2 mphClear
3:35 PM78.1 °F67.1 °F69 %30.11 in10.0 miSSE (160°)9.2 mphClear
3:55 PM78.4 °F68.0 °F70 %30.11 in10.0 miSouth (170°)6.9 mphClear
4:15 PM78.3 °F68.2 °F71 %30.12 in10.0 miSouth (190°)8.1 mphClear
4:35 PM76.8 °F68.2 °F75 %30.11 in10.0 miSSE (160°)5.8 mphClear
4:55 PM77.7 °F68.0 °F72 %30.11 in10.0 miSouth (190°)9.2 mphClear
5:15 PM77.4 °F67.8 °F72 %30.11 in10.0 miSouth (170°)8.1 mphClear
5:35 PM76.6 °F67.5 °F73 %30.11 in10.0 miSSE (160°)8.1 mphClear
5:55 PM76.1 °F67.6 °F75 %30.11 in10.0 miSouth (180°)8.1 mphClear
6:15 PM74.5 °F67.5 °F79 %30.11 in10.0 miSSE (160°)6.9 mphClear
6:35 PM74.5 °F68.0 °F80 %30.11 in10.0 miSouth (170°)6.9 mphClear
6:55 PM74.3 °F68.2 °F81 %30.12 in10.0 miSouth (170°)5.8 mphClear
7:15 PM74.3 °F68.5 °F82 %30.12 in10.0 miSouth (170°)5.8 mphClear
7:35 PM73.4 °F68.2 °F84 %30.12 in10.0 miSouth (170°)4.6 mphClear
7:55 PM73.4 °F68.2 °F84 %30.11 in10.0 miSouth (170°)4.6 mphClear
8:15 PM73.2 °F68.2 °F84 %30.11 in10.0 miSouth (170°)6.9 mphClear
8:35 PM72.9 °F68.2 °F85 %30.12 in10.0 miSouth (170°)4.6 mphScattered Clouds
8:55 PM72.5 °F67.6 °F85 %30.12 in10.0 miSouth (170°)5.8 mphScattered Clouds
9:15 PM72.5 °F67.5 °F84 %30.12 in10.0 miSSE (160°)3.5 mphClear
9:35 PM72.5 °F67.6 °F85 %30.13 in10.0 miCalmClear
9:55 PM72.5 °F68.0 °F86 %30.13 in10.0 miSSE (150°)3.5 mphClear
10:15 PM72.5 °F68.4 °F87 %30.14 in10.0 miSE (140°)4.6 mphClear
10:35 PM72.1 °F68.5 °F88 %30.14 in10.0 miSE (140°)4.6 mphClear
10:55 PM71.8 °F68.5 °F89 %30.14 in10.0 miSSE (150°)4.6 mphClear
11:15 PM72.1 °F68.9 °F89 %30.14 in10.0 miSE (130°)3.5 mphClear
11:35 PM72.5 °F68.9 °F88 %30.14 in10.0 miSouth (170°)3.5 mphScattered Clouds
Hourly data recorded from KSUT, located miles away from Boiling Spring Lakes, North Carolina







STORIES FROM OUR PARTNERS